| time (UTC) | temp F | wind direction | speed MPH | gust MPH | rain 1hr in | rain 24hr in | rain mn in | humidity % | barometer mb |
| 20260505000417 | 60 | 359 | 3.0 | 16.0 | 0.00 | 0.00 | 0.00 | 34 | 1008.5 |
| 20260505000021 | 61 | 5 | 4.0 | 17.0 | 0.00 | 0.00 | 0.00 | 32 | 1009.2 |
| 20260504235910 | 61 | 83 | 4.0 | 16.0 | 0.00 | 0.00 | 0.00 | 32 | 1008.6 |
| 20260504235404 | 62 | 22 | 3.0 | 12.0 | 0.00 | 0.00 | 0.00 | 32 | 1008.5 |
| 20260504234858 | 62 | 20 | 3.0 | 12.0 | 0.00 | 0.00 | 0.00 | 32 | 1008.5 |
| 20260504234509 | 62 | 330 | 4.0 | 13.0 | 0.00 | 0.00 | 0.00 | 31 | 1008.9 |
| 20260504234352 | 62 | 343 | 2.0 | 12.0 | 0.00 | 0.00 | 0.00 | 32 | 1008.3 |
| 20260504233340 | 62 | 32 | 2.0 | 4.0 | 0.00 | 0.00 | 0.00 | 34 | 1008.6 |
| 20260504233013 | 61 | 76 | 2.0 | 4.0 | 0.00 | 0.00 | 0.00 | 34 | 1009.2 |
| 20260504232328 | 61 | 51 | 1.0 | 3.0 | 0.00 | 0.00 | 0.00 | 36 | 1008.8 |
| 20260504231822 | 61 | 89 | 1.0 | 4.0 | 0.00 | 0.00 | 0.00 | 35 | 1008.6 |
| 20260504231520 | 61 | 93 | 1.0 | 4.0 | 0.00 | 0.00 | 0.00 | 33 | 1009.2 |
| 20260504231316 | 61 | 88 | 1.0 | 4.0 | 0.00 | 0.00 | 0.00 | 34 | 1008.6 |
| 20260504230026 | 61 | 209 | 3.0 | 10.0 | 0.00 | 0.00 | 0.00 | 37 | 1009.2 |
| 20260504225757 | 61 | 112 | 3.0 | 9.0 | 0.00 | 0.00 | 0.00 | 40 | 1008.7 |
| 20260504225252 | 60 | 254 | 4.0 | 11.0 | 0.00 | 0.00 | 0.00 | 39 | 1008.6 |
| 20260504224746 | 60 | 132 | 3.0 | 11.0 | 0.00 | 0.00 | 0.00 | 41 | 1008.7 |
| 20260504224523 | 59 | 182 | 3.0 | 10.0 | 0.00 | 0.00 | 0.00 | 40 | 1009.3 |
| 20260504223734 | 59 | 140 | 4.0 | 13.0 | 0.00 | 0.00 | 0.00 | 42 | 1008.9 |
| 20260504223228 | 59 | 58 | 4.0 | 13.0 | 0.00 | 0.00 | 0.00 | 43 | 1008.9 |
| 20260504223010 | 58 | 149 | 7.0 | 15.0 | 0.00 | 0.00 | 0.00 | 41 | 1009.6 |
| 20260504222722 | 58 | 264 | 4.0 | 13.0 | 0.00 | 0.00 | 0.00 | 44 | 1008.9 |
| 20260504222216 | 59 | 46 | 2.0 | 13.0 | 0.00 | 0.00 | 0.00 | 42 | 1009.3 |
| 20260504221521 | 58 | 150 | 1.0 | 8.0 | 0.00 | 0.00 | 0.00 | 46 | 1009.7 |
| 20260504221204 | 59 | 173 | 5.0 | 19.0 | 0.00 | 0.00 | 0.00 | 43 | 1009.1 |
| 20260504220658 | 60 | 194 | 5.0 | 19.0 | 0.00 | 0.00 | 0.00 | 41 | 1009.8 |
| 20260504220152 | 61 | 240 | 4.0 | 12.0 | 0.00 | 0.00 | 0.00 | 34 | 1009.6 |
| 20260504220022 | 61 | 263 | 1.0 | 17.0 | 0.00 | 0.00 | 0.00 | 31 | 1009.9 |
| 20260504215647 | 62 | 307 | 6.0 | 16.0 | 0.00 | 0.00 | 0.00 | 33 | 1009.4 |
| 20260504215143 | 63 | 297 | 6.0 | 16.0 | 0.00 | 0.00 | 0.00 | 28 | 1009.2 |
| 20260504214643 | 64 | 299 | 5.0 | 13.0 | 0.00 | 0.00 | 0.00 | 25 | 1008.7 |
| 20260504214521 | 64 | 305 | 5.0 | 14.0 | 0.00 | 0.00 | 0.00 | 24 | 1009.1 |
| 20260504214143 | 65 | 277 | 4.0 | 13.0 | 0.00 | 0.00 | 0.00 | 24 | 1008.3 |
| 20260504213028 | 65 | 30 | 1.0 | 8.0 | 0.00 | 0.00 | 0.00 | 22 | 1008.6 |
| 20260504212643 | 66 | 311 | 1.0 | 7.0 | 0.00 | 0.00 | 0.00 | 22 | 1007.8 |
| 20260504211643 | 67 | 247 | 1.0 | 3.0 | 0.00 | 0.00 | 0.00 | 19 | 1008.0 |
| 20260504211512 | 66 | 176 | 1.0 | 4.0 | 0.00 | 0.00 | 0.00 | 20 | 1008.5 |
| 20260504211144 | 67 | 149 | 1.0 | 4.0 | 0.00 | 0.00 | 0.00 | 22 | 1007.8 |
| 20260504210141 | 68 | 246 | 2.0 | 6.0 | 0.00 | 0.00 | 0.00 | 22 | 1008.0 |
| 20260504210018 | 67 | 249 | 1.0 | 7.0 | 0.00 | 0.00 | 0.00 | 19 | 1008.6 |
| 20260504205642 | 68 | 243 | 2.0 | 6.0 | 0.00 | 0.00 | 0.00 | 20 | 1008.0 |
| 20260504205142 | 69 | 330 | 2.0 | 6.0 | 0.00 | 0.00 | 0.00 | 19 | 1008.1 |
| 20260504204638 | 69 | 217 | 2.0 | 6.0 | 0.00 | 0.00 | 0.00 | 21 | 1008.2 |
| 20260504204526 | 69 | 194 | 2.0 | 6.0 | 0.00 | 0.00 | 0.00 | 21 | 1008.8 |
| 20260504204139 | 69 | 165 | 2.0 | 5.0 | 0.00 | 0.00 | 0.00 | 22 | 1008.2 |
| 20260504203639 | 69 | 158 | 2.0 | 5.0 | 0.00 | 0.00 | 0.00 | 23 | 1008.3 |
| 20260504203026 | 67 | 272 | 1.0 | 10.0 | 0.00 | 0.00 | 0.00 | 21 | 1009.2 |
| 20260504202133 | 67 | 286 | 3.0 | 9.0 | 0.00 | 0.00 | 0.00 | 20 | 1008.7 |
| 20260504201528 | 66 | 188 | 1.0 | 9.0 | 0.00 | 0.00 | 0.00 | 22 | 1009.2 |
| 20260504201121 | 66 | 340 | 3.0 | 10.0 | 0.00 | 0.00 | 0.00 | 20 | 1008.7 |
| 20260504200615 | 66 | 20 | 4.0 | 14.0 | 0.00 | 0.00 | 0.00 | 22 | 1008.6 |
| 20260504200029 | 66 | 337 | 5.0 | 18.0 | 0.00 | 0.00 | 0.00 | 20 | 1009.2 |
| 20260504195603 | 67 | 294 | 6.0 | 17.0 | 0.00 | 0.00 | 0.00 | 19 | 1008.8 |
| 20260504195057 | 68 | 261 | 3.0 | 13.0 | 0.00 | 0.00 | 0.00 | 18 | 1008.6 |
| 20260504194521 | 68 | 243 | 1.0 | 8.0 | 0.00 | 0.00 | 0.00 | 17 | 1009.1 |
| 20260504194050 | 69 | 127 | 3.0 | 7.0 | 0.00 | 0.00 | 0.00 | 18 | 1008.6 |
| 20260504193547 | 69 | 332 | 3.0 | 7.0 | 0.00 | 0.00 | 0.00 | 17 | 1008.6 |
| 20260504193047 | 69 | 264 | 3.0 | 10.0 | 0.00 | 0.00 | 0.00 | 18 | 1008.7 |
| 20260504193022 | 69 | 294 | 2.0 | 11.0 | 0.00 | 0.00 | 0.00 | 17 | 1009.2 |
| 20260504192045 | 70 | 206 | 3.0 | 7.0 | 0.00 | 0.00 | 0.00 | 17 | 1008.8 |
| 20260504191545 | 71 | 68 | 3.0 | 11.0 | 0.00 | 0.00 | 0.00 | 16 | 1008.9 |
| 20260504191538 | 70 | 140 | 4.0 | 12.0 | 0.00 | 0.00 | 0.00 | 16 | 1009.4 |
| 20260504191045 | 70 | 117 | 4.0 | 11.0 | 0.00 | 0.00 | 0.00 | 17 | 1009.1 |
| 20260504190543 | 70 | 262 | 4.0 | 10.0 | 0.00 | 0.00 | 0.00 | 17 | 1009.1 |
| 20260504190045 | 70 | 309 | 4.0 | 10.0 | 0.00 | 0.00 | 0.00 | 18 | 1009.2 |
| 20260504190027 | 70 | 262 | 2.0 | 11.0 | 0.00 | 0.00 | 0.00 | 17 | 1009.6 |
| 20260504185543 | 69 | 124 | 3.0 | 10.0 | 0.00 | 0.00 | 0.00 | 20 | 1009.2 |
| 20260504185043 | 69 | 333 | 2.0 | 7.0 | 0.00 | 0.00 | 0.00 | 17 | 1009.3 |
| 20260504184542 | 69 | 131 | 2.0 | 7.0 | 0.00 | 0.00 | 0.00 | 19 | 1009.3 |
| 20260504184516 | 69 | 125 | 2.0 | 7.0 | 0.00 | 0.00 | 0.00 | 19 | 1009.7 |
| 20260504184043 | 69 | 150 | 2.0 | 6.0 | 0.00 | 0.00 | 0.00 | 17 | 1009.6 |
| 20260504183044 | 70 | 311 | 3.0 | 10.0 | 0.00 | 0.00 | 0.00 | 18 | 1009.8 |
| 20260504183036 | 69 | 213 | 2.0 | 11.0 | 0.00 | 0.00 | 0.00 | 18 | 1010.2 |
| 20260504182539 | 70 | 250 | 4.0 | 9.0 | 0.00 | 0.00 | 0.00 | 19 | 1009.9 |
| 20260504182039 | 69 | 255 | 4.0 | 10.0 | 0.00 | 0.00 | 0.00 | 19 | 1010.0 |
| 20260504181540 | 69 | 221 | 3.0 | 10.0 | 0.00 | 0.00 | 0.00 | 19 | 1010.2 |
| 20260504181528 | 68 | 175 | 4.0 | 11.0 | 0.00 | 0.00 | 0.00 | 18 | 1010.5 |
| 20260504181039 | 69 | 232 | 1.0 | 6.0 | 0.00 | 0.00 | 0.00 | 19 | 1010.2 |
| 20260504180540 | 67 | 332 | 2.0 | 5.0 | 0.00 | 0.00 | 0.00 | 21 | 1010.0 |
| 20260504180038 | 66 | 167 | 3.0 | 9.0 | 0.00 | 0.00 | 0.00 | 21 | 1010.2 |
| 20260504180026 | 66 | 147 | 1.0 | 10.0 | 0.00 | 0.00 | 0.00 | 21 | 1010.7 |
| 20260504175540 | 66 | 283 | 5.0 | 11.0 | 0.00 | 0.00 | 0.00 | 18 | 1010.3 |
| 20260504175039 | 67 | 175 | 5.0 | 12.0 | 0.00 | 0.00 | 0.00 | 19 | 1010.3 |
| 20260504174539 | 66 | 177 | 4.0 | 12.0 | 0.00 | 0.00 | 0.00 | 22 | 1010.4 |
| 20260504174530 | 66 | 200 | 3.0 | 13.0 | 0.00 | 0.00 | 0.00 | 21 | 1010.9 |
| 20260504174040 | 67 | 242 | 5.0 | 13.0 | 0.00 | 0.00 | 0.00 | 21 | 1010.7 |
| 20260504173535 | 67 | 288 | 4.0 | 13.0 | 0.00 | 0.00 | 0.00 | 20 | 1010.4 |
| 20260504173035 | 68 | 201 | 3.0 | 8.0 | 0.00 | 0.00 | 0.00 | 21 | 1010.5 |
| 20260504173018 | 68 | 107 | 3.0 | 10.0 | 0.00 | 0.00 | 0.00 | 20 | 1011.0 |
| 20260504172536 | 68 | 261 | 4.0 | 11.0 | 0.00 | 0.00 | 0.00 | 19 | 1010.7 |
| 20260504172037 | 68 | 252 | 5.0 | 13.0 | 0.00 | 0.00 | 0.00 | 23 | 1010.8 |
| 20260504171524 | 67 | 231 | 6.0 | 14.0 | 0.00 | 0.00 | 0.00 | 20 | 1011.1 |
| 20260504171036 | 68 | 266 | 3.0 | 9.0 | 0.00 | 0.00 | 0.00 | 20 | 1010.9 |
| 20260504151012 | 59 | 337 | 6.0 | 13.0 | 0.00 | 0.00 | 0.00 | 31 | 1011.8 |
| 20260504150507 | 59 | 240 | 6.0 | 16.0 | 0.00 | 0.00 | 0.00 | 30 | 1011.9 |
| 20260504140955 | 59 | 0 | 3.0 | 9.0 | 0.00 | 0.00 | 0.00 | 32 | 1011.3 |
| 20260504140456 | 58 | 285 | 2.0 | 9.0 | 0.00 | 0.00 | 0.00 | 32 | 1011.3 |
| 20260504120310 | 45 | 167 | 1.0 | 6.0 | 0.00 | 0.00 | 0.00 | 46 | 1011.4 |
| 20260504110705 | 41 | 354 | 0.0 | 2.0 | 0.00 | 0.00 | 0.00 | 59 | 1011.4 |
| 20260504110158 | 42 | 327 | 0.0 | 1.0 | 0.00 | 0.00 | 0.00 | 58 | 1011.4 |
| 20260504081524 | 43 | 329 | 0.0 | 1.0 | 0.00 | 0.00 | 0.00 | 55 | 1012.9 |
| 20260504081512 | 43 | 335 | 0.0 | 1.0 | 0.00 | 0.00 | 0.00 | 56 | 1012.5 |
| 20260504080501 | 43 | 335 | 0.0 | 1.0 | 0.00 | 0.00 | 0.00 | 57 | 1012.5 |
| 20260504070349 | 47 | 335 | 1.0 | 4.0 | 0.00 | 0.00 | 0.00 | 50 | 1013.1 |
| 20260504050630 | 51 | 313 | 1.0 | 4.0 | 0.00 | 0.00 | 0.00 | 40 | 1013.7 |
| 20260504050125 | 52 | 325 | 1.0 | 4.0 | 0.00 | 0.00 | 0.00 | 39 | 1013.7 |
| 20260504050020 | 51 | 316 | 0.0 | 4.0 | 0.00 | 0.00 | 0.00 | 39 | 1014.3 |
| 20260504045618 | 52 | 307 | 1.0 | 2.0 | 0.00 | 0.00 | 0.00 | 39 | 1013.7 |
| 20260504045112 | 52 | 328 | 1.0 | 3.0 | 0.00 | 0.00 | 0.00 | 38 | 1013.7 |
| 20260504044606 | 52 | 316 | 1.0 | 3.0 | 0.00 | 0.00 | 0.00 | 38 | 1013.7 |
| 20260504044532 | 52 | 279 | 0.0 | 3.0 | 0.00 | 0.00 | 0.00 | 37 | 1014.2 |
| 20260504044059 | 52 | 277 | 0.0 | 3.0 | 0.00 | 0.00 | 0.00 | 37 | 1013.8 |
| 20260504043554 | 53 | 293 | 0.0 | 2.0 | 0.00 | 0.00 | 0.00 | 37 | 1013.8 |
| 20260504043048 | 53 | 295 | 0.0 | 2.0 | 0.00 | 0.00 | 0.00 | 36 | 1013.8 |
| 20260504043027 | 52 | 291 | 0.0 | 2.0 | 0.00 | 0.00 | 0.00 | 36 | 1014.4 |
| 20260504042542 | 53 | 341 | 0.0 | 0.0 | 0.00 | 0.00 | 0.00 | 36 | 1014.0 |
| 20260504042035 | 53 | 341 | 0.0 | 1.0 | 0.00 | 0.00 | 0.00 | 36 | 1013.8 |
| 20260504041528 | 53 | 334 | 0.0 | 1.0 | 0.00 | 0.00 | 0.00 | 35 | 1014.4 |
| 20260504041024 | 54 | 340 | 0.0 | 2.0 | 0.00 | 0.00 | 0.00 | 36 | 1013.8 |
| 20260504040030 | 54 | 333 | 1.0 | 3.0 | 0.00 | 0.00 | 0.00 | 34 | 1014.5 |
| 20260504040012 | 55 | 338 | 1.0 | 3.0 | 0.00 | 0.00 | 0.00 | 35 | 1013.8 |
| 20260504035507 | 55 | 336 | 0.0 | 2.0 | 0.00 | 0.00 | 0.00 | 35 | 1013.8 |
| 20260504035000 | 55 | 336 | 0.0 | 2.0 | 0.00 | 0.00 | 0.00 | 34 | 1013.8 |
| 20260504034526 | 55 | 329 | 0.0 | 2.0 | 0.00 | 0.00 | 0.00 | 33 | 1014.4 |
| 20260504033948 | 56 | 356 | 0.0 | 3.0 | 0.00 | 0.00 | 0.00 | 34 | 1013.8 |
| 20260504033441 | 56 | 356 | 0.0 | 3.0 | 0.00 | 0.00 | 0.00 | 33 | 1013.8 |
| 20260504033026 | 56 | 341 | 0.0 | 2.0 | 0.00 | 0.00 | 0.00 | 32 | 1014.5 |
| 20260504032430 | 56 | 348 | 0.0 | 2.0 | 0.00 | 0.00 | 0.00 | 32 | 1013.8 |
| 20260504031526 | 56 | 319 | 0.0 | 3.0 | 0.00 | 0.00 | 0.00 | 31 | 1014.2 |
| 20260504031418 | 57 | 277 | 0.0 | 3.0 | 0.00 | 0.00 | 0.00 | 31 | 1013.6 |
| 20260504030039 | 57 | 341 | 1.0 | 5.0 | 0.00 | 0.00 | 0.00 | 29 | 1014.0 |
| 20260504025900 | 58 | 8 | 1.0 | 4.0 | 0.00 | 0.00 | 0.00 | 30 | 1013.5 |
| 20260504025354 | 58 | 8 | 1.0 | 4.0 | 0.00 | 0.00 | 0.00 | 29 | 1013.3 |
| 20260504024529 | 59 | 345 | 1.0 | 8.0 | 0.00 | 0.00 | 0.00 | 27 | 1013.9 |
| 20260504024341 | 59 | 329 | 1.0 | 7.0 | 0.00 | 0.00 | 0.00 | 27 | 1013.3 |
| 20260504023836 | 60 | 350 | 1.0 | 3.0 | 0.00 | 0.00 | 0.00 | 26 | 1013.2 |
| 20260504023330 | 60 | 335 | 0.0 | 3.0 | 0.00 | 0.00 | 0.00 | 26 | 1013.2 |
| 20260504023026 | 60 | 343 | 0.0 | 2.0 | 0.00 | 0.00 | 0.00 | 25 | 1013.8 |
| 20260504021812 | 61 | 339 | 1.0 | 3.0 | 0.00 | 0.00 | 0.00 | 24 | 1013.0 |
| 20260504021526 | 61 | 341 | 0.0 | 8.0 | 0.00 | 0.00 | 0.00 | 24 | 1013.5 |
| 20260504021306 | 61 | 340 | 2.0 | 7.0 | 0.00 | 0.00 | 0.00 | 24 | 1013.1 |
| 20260504020800 | 62 | 323 | 4.0 | 7.0 | 0.00 | 0.00 | 0.00 | 24 | 1013.2 |
| 20260504020026 | 62 | 266 | 4.0 | 11.0 | 0.00 | 0.00 | 0.00 | 23 | 1013.8 |
| 20260504015748 | 62 | 298 | 3.0 | 10.0 | 0.00 | 0.00 | 0.00 | 23 | 1013.2 |
| 20260504015242 | 62 | 280 | 2.0 | 7.0 | 0.00 | 0.00 | 0.00 | 22 | 1013.2 |
| 20260504014737 | 62 | 325 | 1.0 | 5.0 | 0.00 | 0.00 | 0.00 | 22 | 1013.1 |
| 20260504014539 | 62 | 281 | 2.0 | 6.0 | 0.00 | 0.00 | 0.00 | 21 | 1013.6 |
| 20260504014237 | 62 | 285 | 1.0 | 5.0 | 0.00 | 0.00 | 0.00 | 22 | 1013.0 |
| 20260504013739 | 62 | 297 | 1.0 | 5.0 | 0.00 | 0.00 | 0.00 | 22 | 1012.9 |
| 20260504013237 | 63 | 319 | 2.0 | 6.0 | 0.00 | 0.00 | 0.00 | 21 | 1012.9 |
| 20260504013032 | 62 | 290 | 0.0 | 9.0 | 0.00 | 0.00 | 0.00 | 21 | 1013.4 |
| 20260504012737 | 63 | 359 | 2.0 | 8.0 | 0.00 | 0.00 | 0.00 | 22 | 1012.7 |
| 20260504012234 | 62 | 205 | 2.0 | 8.0 | 0.00 | 0.00 | 0.00 | 23 | 1012.9 |
| 20260504011735 | 63 | 347 | 1.0 | 5.0 | 0.00 | 0.00 | 0.00 | 23 | 1013.1 |
| 20260504011524 | 62 | 347 | 3.0 | 8.0 | 0.00 | 0.00 | 0.00 | 22 | 1013.5 |
| 20260504011236 | 63 | 342 | 1.0 | 7.0 | 0.00 | 0.00 | 0.00 | 24 | 1012.9 |
| 20260504010737 | 63 | 8 | 2.0 | 7.0 | 0.00 | 0.00 | 0.00 | 22 | 1012.9 |
| 20260504010235 | 62 | 351 | 1.0 | 4.0 | 0.00 | 0.00 | 0.00 | 23 | 1012.9 |
| 20260504010009 | 62 | 340 | 1.0 | 3.0 | 0.00 | 0.00 | 0.00 | 23 | 1013.4 |
| 20260504005234 | 63 | 46 | 2.0 | 6.0 | 0.00 | 0.00 | 0.00 | 23 | 1012.6 |
| 20260504004734 | 63 | 48 | 4.0 | 6.0 | 0.00 | 0.00 | 0.00 | 22 | 1012.5 |
| 20260504004513 | 63 | 57 | 3.0 | 6.0 | 0.00 | 0.00 | 0.00 | 23 | 1013.1 |
| 20260504004233 | 63 | 47 | 4.0 | 6.0 | 0.00 | 0.00 | 0.00 | 22 | 1012.5 |
| 20260504003735 | 63 | 29 | 3.0 | 8.0 | 0.00 | 0.00 | 0.00 | 22 | 1012.6 |
| 20260504003234 | 64 | 50 | 3.0 | 9.0 | 0.00 | 0.00 | 0.00 | 22 | 1012.7 |
| 20260504003028 | 64 | 20 | 2.0 | 10.0 | 0.00 | 0.00 | 0.00 | 22 | 1013.3 |
| 20260504002736 | 64 | 52 | 2.0 | 9.0 | 0.00 | 0.00 | 0.00 | 22 | 1012.7 |
| 20260504002236 | 65 | 58 | 2.0 | 5.0 | 0.00 | 0.00 | 0.00 | 21 | 1012.7 |
| 20260504001729 | 65 | 57 | 3.0 | 5.0 | 0.00 | 0.00 | 0.00 | 19 | 1012.9 |
| 20260504001503 | 64 | 53 | 3.0 | 6.0 | 0.00 | 0.00 | 0.00 | 19 | 1013.4 |